Regional Weather Roundup
Issued by NWS Upton, NY

Current Version | Previous Version | Text Only | Print | Product List | Glossary Off
Versions: 1 2 3 4 5 6 7 8 9 10 11 12 13 14 15 16 17 18 19 20 21 22 23 24 25 26 27 28 29 30 31 32 33 34 35 36 37 38 39 40 41 42 43 44 45 46 47 48 49 50
000 ASUS41 KOKX 251418 RWROKX REGIONAL WEATHER ROUNDUP NATIONAL WEATHER SERVICE NEW YORK NY 1000 AM EDT MON MAY 25 2015 NOTE: "FAIR" INDICATES FEW OR NO CLOUDS BELOW 12,000 FEET WITH NO SIGNIFICANT WEATHER AND/OR OBSTRUCTIONS TO VISIBILITY. NYZ071-072-176-178-NJZ106-104-251500- NEW YORK CITY METRO AREA CITY SKY/WX TMP DP RH WIND PRES REMARKS CENTRAL PARK PTSUNNY 72 56 57 CALM 30.29F LAGUARDIA APRT PTSUNNY 73 56 54 SW9 30.27S KENNEDY INTL PTSUNNY 69 55 60 SW3 30.29S NEWARK/LIBERTY PTSUNNY 75 58 55 SW6 30.26F BRNX BOT. GARD N/A 73 55 53 S6 30.29R TETERBORO MOSUNNY 70 56 61 CALM 30.26S $$ NYZ177-179-078>081-251500- LONG ISLAND NEW YORK CITY SKY/WX TMP DP RH WIND PRES REMARKS FARMINGDALE MOSUNNY 68 57 68 SW7 30.29S ISLIP PTSUNNY 68 56 65 SW8 30.27S SHIRLEY PTSUNNY 68 57 68 SW6 30.29S WESTHAMPTON PTSUNNY 65 56 72 SW10 30.31R MONTAUK POINT N/A 63 54 72 VRB6 30.30F $$ NYZ052-065-067-251500- HUDSON VALLEY CITY SKY/WX TMP DP RH WIND PRES REMARKS WHITE PLAINS PTSUNNY 70 58 65 S3 30.27S NEWBURGH MOSUNNY 70 59 68 CALM 30.27 MONTGOMERY MOSUNNY 73 60 63 S6 30.24F POUGHKEEPSIE CLOUDY 72 57 59 VRB3 30.24S ALBANY CLOUDY 66 49 54 S5 30.23F $$ NJZ001-105-106-008-010-013-015-019>022-104-251500- NEW JERSEY CITY SKY/WX TMP DP RH WIND PRES REMARKS NEWARK/LIBERTY PTSUNNY 75 58 55 SW6 30.26F TETERBORO MOSUNNY 70 56 61 CALM 30.26S CALDWELL MOSUNNY 71 57 61 S6 30.27F MORRISTOWN PTSUNNY 75 59 57 SW7 30.27F SOMERVILLE MOSUNNY 72 59 63 VRB3 30.25F SUSSEX MOSUNNY 72 58 61 SW8 30.26F ANDOVER N/A 71 59 65 VRB6 30.26F TRENTON MOSUNNY 76 60 57 S9 30.27F MILLVILLE SUNNY 75 60 59 SW6 30.30F ATLANTIC CITY SUNNY 76 59 55 SW9G18 30.30F WRIGHTSTOWN SUNNY 77 61 57 SW13 30.26F TOMS RIVER SUNNY N/A N/A N/A SW14 30.28F BELMAR MOSUNNY 75 57 53 SW9 30.28F $$ PAZ047>061-062-071-251500- EASTERN PENNSYLVANIA CITY SKY/WX TMP DP RH WIND PRES REMARKS PHILADELPHIA MOSUNNY 76 58 53 SW12 30.28F ALLENTOWN PTSUNNY 74 58 57 W8 30.26F SCRANTON MOSUNNY 77 54 44 W10 30.22F $$ CTZ002-004>006-009-010-012-RIZ004-006-007-MAZ004-011-015-251500- SOUTHERN NEW ENGLAND IN CT CITY SKY/WX TMP DP RH WIND PRES REMARKS BRADLEY INTL CLOUDY 69 54 58 CALM 30.25S HARTFORD CLOUDY 70 55 59 SW10 30.26S DANBURY MOSUNNY 72 58 61 CALM 30.27F WTRBRY/OXFORD CLOUDY 66 55 68 SW5 30.29S BRIDGEPORT MOSUNNY 68 56 65 SW8 30.28S MERIDEN CLOUDY 68 54 60 S6 30.27S NEW HAVEN PTSUNNY 66 55 67 S6 30.28S CHESTER FAIR 68 57 68 SW3 30.29S GROTON PTSUNNY 62 55 77 S7 30.28S WILLIMANTIC CLOUDY 67 55 65 S3 30.27F IN RI CITY SKY/WX TMP DP RH WIND PRES REMARKS PROVIDENCE PTSUNNY 76 55 48 SW12 30.26F BLOCK ISLAND PTSUNNY 61 52 72 SW15G22 30.30F WESTERLY PTSUNNY 64 54 69 S7 30.29S IN MA CITY SKY/WX TMP DP RH WIND PRES REMARKS BOSTON PTSUNNY 74 51 44 SW8 30.23S WORCESTER CLOUDY 68 49 50 W9 30.27S HAZE WESTFIELD CLOUDY 67 53 61 CALM 30.26 PROVINCETOWN SUNNY 66 54 63 S13 30.26S NANTUCKET SUNNY 61 53 75 SW13 30.31S $$ ANZ330-335-338-340-345-350-353-355-251500- COASTAL MARINE OBSERVATIONS STATION/POSITION TIME SKY/WX TEMP WIND PRES VSBY WAVE AIR SEA DIR/SP/G HT/PER (UTC) (F) (DEG/KT/KT) (MB) (MI) (FT/S) NY HARB ENTRANCE 1350 59 56 200/ 10/ 10 1025.2 2/ 4 4S FIRE IS 1303 55 N/A 2/ 5 20S FIRE ISLAND 1350 58 55 210/ 12/ 14 1025.7 2/ 5 GREAT SOUTH BAY 1300 60 63 230/ 10/ 12 N/A 23SW MTP 1350 56 53 210/ 10/ 12 1025.6 2/ 5 HUDSON CANYON NOT AVBL KINGS POINT 1300 65 55 200/ 6/ 7 1024.6 CENTRAL LI SOUND 1300 58 54 150/ 2/ 2 N/A EASTERN LI SOUND 1300 60 CALM / 2 N/A ROBBINS REEF 1300 62 160/ 7/ 8 1024.2 $$ >>>>>>>>>>>>>>>>>>>>>>>>>>>> KEY <<<<<<<<<<<<<<<<<<<<<<<<<<< > < > SKY/WX - SKY CONDITION/PRESENT WEATHER < > TMP - TEMPERATURE IN FAHRENHEIT < > DP - DEWPOINT IN FAHRENHEIT < > RH - RELATIVE HUMIDITY IN PERCENT < > WIND - DIRECTION AND SPEED IN MPH < > PRES - MEAN SEA LEVEL PRESSURE IN INCHES OF HG < > WCI - WIND CHILL INDEX < > VSB - VISIBILITY IN MILES < > HX - HEAT INDEX < > TC - TEMPERATURE IN CELSIUS < > VRB - VARIABLE WIND DIRECTION < > < >>>>>>>>>>>>>>>>>>>>>>>>>>>> KEY <<<<<<<<<<<<<<<<<<<<<<<<<<<

USA.gov is the U.S. government's official web portal to all federal, state and local government web resources and services.